Regional Weather Roundup
Issued by NWS

Home | Current Version | Previous Version | Text Only | Print | Product List | Glossary On
Versions: 1 2 3 4 5 6 7 8 9 10 11 12 13 14 15 16 17 18 19 20 21 22 23 24 25 26 27 28 29 30 31 32 33 34 35 36 37 38 39 40 41 42 43 44 45 46 47 48 49 50
000
ASUS45 KBOI 301610
RWRID

IDAHO REGIONAL WEATHER ROUNDUP
NATIONAL WEATHER SERVICE BOISE ID
1000 AM MDT SUN AUG 30 2015

NOTE: "FAIR" INDICATES FEW OR NO CLOUDS BELOW 12000 FEET
WITH NO SIGNIFICANT WEATHER AND/OR OBSTRUCTIONS TO VISIBILITY

IDZ012-014-301700-
SOUTHWEST IDAHO


CITY           SKY/WX    TMP DP  RH WIND       PRES   REMARKS
BOISE          SUNNY     66  44  45 CALM      30.00R
CALDWELL       SUNNY     66  43  42 E3        30.00S
MOUNTAIN HOME  SUNNY     69  42  38 NW7       30.01R
$$

IDZ016-017-301700-
SOUTHCENTRAL IDAHO


CITY           SKY/WX    TMP DP  RH WIND       PRES   REMARKS
BURLEY         MOSUNNY   65  44  46 W14G22    30.04R
JEROME         SUNNY     68  40  35 SW14G21   30.04R
TWIN FALLS     SUNNY     72  33  24 W16       30.05R
$$

IDZ019>023-301700-
SOUTHEAST IDAHO


CITY           SKY/WX    TMP DP  RH WIND       PRES   REMARKS
IDAHO FALLS    PTSUNNY   70  48  45 SW18      30.04R
POCATELLO      SUNNY     72  47  40 SW12      30.05R
REXBURG        PTSUNNY   69  47  45 SW17G25   30.03S
$$

IDZ006-010-011-018-031-032-301700-
CENTRAL IDAHO MOUNTAINS


CITY           SKY/WX    TMP DP  RH WIND       PRES   REMARKS
MCCALL         CLOUDY    60  45  57 S14       30.02R
HAILEY         MOSUNNY   63  50  63 CALM      30.08S
STANLEY          N/A     59  44  57 E9        30.09S
SALMON         MOSUNNY   73  45  35 S14G22    29.91F
CHALLIS        SUNNY     63  48  58 SE3       30.01S
$$

IDZ002-004-006-007-026-301700-
NORTHERN IDAHO


CITY           SKY/WX    TMP DP  RH WIND       PRES   REMARKS
LEWISTON       CLOUDY    61  53  75 SE3       29.86R
LOWELL           N/A     61  56  83 CALM      29.91S
COEUR D`ALENE  CLOUDY    57  48  72 W16G22    29.88R
MULLAN PASS    MOSUNNY   50  39  66 VRB6      29.96F
$$



USA.gov is the U.S. government's official web portal to all federal, state and local government web resources and services.